Погода в Попове

Россия / Волгоградская область     50°23′31″N   43°16′44″E
темп.,
°C
ветер,
м/с
пор.,
м/с
влажн.,
%
обл.,
%
осадки,
мм/ч
давл.,
гПа
погр.,
м
21 апреля, ср
ср2100:00+13ю11168337 1.4 1008985
03:00+10ююв714949 2.6 1009423
06:00+10ю8149138 0.2 1009782
09:00+11ю91278100 0.3 10111065
12:00+11ююз91383100 0.1 10131061
15:00+13зюз810629 0.2 10141292
18:00+12зюз3569100 0.1 1016284
21:00+9ю358527 0.7 101874
22 апреля, чт
чт2200:00+8ююз348526 0.2 101950
03:00+8ююз33805 0.2 102054
06:00+7ю22855 0.0 102131
09:00+13ю22615 0.0 1022494
12:00+16юз335023 0.7 10221617
15:00+16ююз344988 1.6 10211611
18:00+15ююз12575 0.1 102285
21:00+12ююв116354 0.1 102210
23 апреля, пт
пт2300:00+10вюв117279 0.4 102210
03:00+9вюв227560 0.8 102215
06:00+10юв2276100 0.0 102219
09:00+14ююз3460100 0.0 1022462
12:00+16ююз3350100 1.4 10211448
15:00+17ююв334463 2.2 10191969
18:00+14ююз246283 0.4 101974
21:00+11ююв127885 1.7 101919
24 апреля, сб
сб2400:00+10ю338362 0.1 101742
03:00+9ю368586 0.1 1016113
06:00+9ю3784100 0.0 1015187
09:00+13ююз5868100 0.1 1014562
12:00+16ююз795195 0.3 10122031
15:00+15юз91258100 0.9 10112037
18:00+9з597117 1.1 10141202
21:00+6зюз34763 1.1 101582
25 апреля, вс
вс2500:00+5ююз410779 0.0 1015199
03:00+5зюз4108711 0.0 1016336
06:00+4ю388489 0.0 1016179
09:00+8юз6117293 0.1 10161193
12:00+11зюз7105569 0.9 10161736
15:00+10з6854100 1.3 10161532
18:00+10з4655100 0.0 1017272
21:00+7ююз1159100 0.0 101713